FW1358 Weather Reports


Display with metric or nautical units.
time (UTC)temp
F
wind
direction
speed
MPH
gust
MPH
rain 1hr
in
rain 24hr
in
rain mn
in
humidity
%
barometer
mb
20260504160303 76 21 0.0 9.0 0.00 0.00 0.00 48 1014.9
20260504150802 71 315 0.0 3.0 0.00 0.00 0.00 51 1015.3
20260504120304 53 268 0.0 0.0 0.00 0.00 0.00 73 1015.7
20260504110303 51 268 0.0 0.0 0.00 0.00 0.00 75 1015.1
20260504081303 53 276 0.0 0.0 0.00 0.00 0.00 68 1015.5
20260504080303 53 276 0.0 0.0 0.00 0.00 0.00 69 1015.5
20260504070303 52 276 0.0 0.0 0.00 0.00 0.00 69 1015.8
20260504043804 55 10 0.0 0.0 0.00 0.00 0.00 62 1016.6
20260504042804 55 10 0.0 0.0 0.00 0.00 0.00 60 1016.6
20260504042304 55 10 0.0 0.0 0.00 0.00 0.00 60 1016.6
20260504041803 56 10 0.0 0.0 0.00 0.00 0.00 61 1016.6
20260504041303 56 10 0.0 0.0 0.00 0.00 0.00 60 1016.7
20260504040803 56 10 0.0 0.0 0.00 0.00 0.00 60 1016.7
20260504035304 56 10 0.0 0.0 0.00 0.00 0.00 59 1016.9
20260504034803 56 10 0.0 0.0 0.00 0.00 0.00 59 1016.9
20260504033804 57 10 0.0 0.0 0.00 0.00 0.00 59 1016.9
20260504033303 57 10 0.0 0.0 0.00 0.00 0.00 58 1016.9
20260504031303 58 10 0.0 0.0 0.00 0.00 0.00 58 1017.1
20260504030803 58 10 0.0 0.0 0.00 0.00 0.00 57 1017.1
20260504030303 58 10 0.0 0.0 0.00 0.00 0.00 57 1017.2
20260504025803 58 10 0.0 0.0 0.00 0.00 0.00 56 1017.1
20260504024303 59 10 0.0 0.0 0.00 0.00 0.00 54 1017.2
20260504023803 59 10 0.0 0.0 0.00 0.00 0.00 54 1017.1
20260504022804 59 10 0.0 0.0 0.00 0.00 0.00 53 1017.0
20260504022304 59 10 0.0 0.0 0.00 0.00 0.00 53 1016.9
20260504020304 59 10 0.0 0.0 0.00 0.00 0.00 53 1016.4
20260504013803 60 10 0.0 0.0 0.00 0.00 0.00 53 1016.1
20260504013303 61 10 0.0 0.0 0.00 0.00 0.00 52 1016.2
20260504012803 61 10 0.0 0.0 0.00 0.00 0.00 51 1016.1
20260504010804 62 10 0.0 0.0 0.00 0.00 0.00 48 1016.3
20260504005803 63 10 0.0 0.0 0.00 0.00 0.00 48 1016.3
20260504003803 64 10 0.0 0.0 0.00 0.00 0.00 45 1016.2
20260504002304 65 10 0.0 0.0 0.00 0.00 0.00 43 1016.3
20260504001302 65 10 0.0 0.0 0.00 0.00 0.00 42 1016.4
20260504000303 66 10 0.0 0.0 0.00 0.00 0.00 41 1016.5
20260503235304 66 10 0.0 0.0 0.00 0.00 0.00 39 1016.6
20260503233303 67 10 0.0 0.0 0.00 0.00 0.00 38 1016.7
20260503232803 67 10 0.0 0.0 0.00 0.00 0.00 39 1016.8
20260503232305 67 10 0.0 0.0 0.00 0.00 0.00 39 1016.8
20260503230803 67 10 0.0 0.0 0.00 0.01 0.00 38 1016.7
20260503230303 67 10 0.0 0.0 0.00 0.01 0.00 37 1016.7
20260503225804 67 10 0.0 1.0 0.00 0.01 0.00 36 1016.8
20260503224803 68 0 0.0 3.0 0.00 0.01 0.00 35 1017.0
20260503224303 68 5 0.0 0.0 0.00 0.01 0.00 35 1017.1
20260503223303 69 5 0.0 0.0 0.00 0.01 0.00 35 1017.2
20260503221304 70 5 0.0 0.0 0.00 0.01 0.00 32 1017.5
20260503220303 70 5 0.0 3.0 0.00 0.01 0.00 31 1017.6
20260503215803 70 5 0.0 3.0 0.00 0.01 0.00 34 1017.7
20260503214803 71 246 0.0 0.0 0.00 0.02 0.00 31 1017.7
20260503214303 71 246 0.0 0.0 0.00 0.03 0.00 31 1017.7
20260503213803 71 246 0.0 0.0 0.00 0.04 0.00 35 1017.8
20260503213303 71 246 0.0 3.0 0.00 0.04 0.00 34 1017.9
20260503212305 72 260 0.0 3.0 0.00 0.04 0.00 33 1018.1
20260503210303 71 338 0.0 0.0 0.00 0.04 0.00 35 1018.2
20260503204803 71 338 1.0 7.0 0.00 0.04 0.00 33 1018.5
20260503203303 71 287 0.0 1.0 0.00 0.04 0.00 34 1018.8
20260503202304 71 76 0.0 0.0 0.00 0.04 0.00 36 1019.0
20260503201303 71 76 0.0 0.0 0.00 0.04 0.00 34 1019.0
20260503200803 71 76 0.0 3.0 0.00 0.04 0.00 35 1019.3
20260503195304 70 303 0.0 5.0 0.00 0.04 0.00 36 1019.5
20260503194803 70 212 2.0 3.0 0.00 0.04 0.00 36 1019.5
20260503194303 70 301 0.0 3.0 0.00 0.04 0.00 34 1019.6
20260503193803 71 352 0.0 0.0 0.00 0.04 0.00 35 1019.7
20260503193304 70 352 0.0 1.0 0.00 0.04 0.00 38 1019.7
20260503192803 70 352 0.0 1.0 0.00 0.04 0.00 35 1019.8
20260503192305 70 0 0.0 0.0 0.00 0.04 0.00 36 1019.7
20260503191804 70 0 0.0 0.0 0.00 0.04 0.00 36 1019.9
20260503191303 70 0 0.0 2.0 0.00 0.04 0.00 33 1020.0
20260503190803 70 0 0.0 2.0 0.00 0.04 0.00 36 1020.1
20260503190303 70 295 0.0 1.0 0.00 0.04 0.00 36 1020.1
20260503184803 70 221 0.0 0.0 0.00 0.04 0.00 36 1020.3
20260503184304 69 221 0.0 0.0 0.00 0.04 0.00 33 1020.4
20260503183303 69 221 0.0 1.0 0.00 0.04 0.00 36 1020.6
20260503182804 69 221 0.0 1.0 0.00 0.04 0.00 35 1020.6
20260503180303 67 269 0.0 0.0 0.00 0.04 0.00 37 1020.9
20260503173803 66 269 0.0 0.0 0.00 0.04 0.00 38 1021.3
20260503172803 65 269 0.0 0.0 0.00 0.04 0.00 38 1021.6
20260503171303 64 269 0.0 0.0 0.00 0.04 0.00 38 1021.7
20260503170803 64 269 0.0 0.0 0.00 0.04 0.00 42 1021.9